Year,Month,Day,Hour,Minute,Value (Times are PST for temperature in C)
2017,08,23,00,00,15.20
2017,08,23,00,01,15.20
2017,08,23,00,02,15.20
2017,08,23,00,03,15.10
2017,08,23,00,04,15.10
2017,08,23,00,05,15.00
2017,08,23,00,06,15.00
2017,08,23,00,07,14.90
2017,08,23,00,08,14.90
2017,08,23,00,09,14.90
2017,08,23,00,10,14.80
2017,08,23,00,11,14.80
2017,08,23,00,12,14.80
2017,08,23,00,13,14.80
2017,08,23,00,14,14.70
2017,08,23,00,15,14.70
2017,08,23,00,16,14.70
2017,08,23,00,17,14.70
2017,08,23,00,18,14.70
2017,08,23,00,19,14.70
2017,08,23,00,20,14.70
2017,08,23,00,21,14.70
2017,08,23,00,22,14.70
2017,08,23,00,23,14.80
2017,08,23,00,24,14.80
2017,08,23,00,25,14.80
2017,08,23,00,26,14.80
2017,08,23,00,27,14.80
2017,08,23,00,28,14.90
2017,08,23,00,29,14.90
2017,08,23,00,30,14.90
2017,08,23,00,31,15.00
2017,08,23,00,32,15.00
2017,08,23,00,33,15.00
2017,08,23,00,34,15.10
2017,08,23,00,35,15.10
2017,08,23,00,36,15.10
2017,08,23,00,37,15.10
2017,08,23,00,38,15.10
2017,08,23,00,39,15.10
2017,08,23,00,40,15.10
2017,08,23,00,41,15.10
2017,08,23,00,42,15.20
2017,08,23,00,43,15.20
2017,08,23,00,44,15.20
2017,08,23,00,45,15.20
2017,08,23,00,46,15.20
2017,08,23,00,47,15.20
2017,08,23,00,48,15.30
2017,08,23,00,49,15.40
2017,08,23,00,50,15.50
2017,08,23,00,51,15.60
2017,08,23,00,52,15.70
2017,08,23,00,53,15.70
2017,08,23,00,54,15.70
2017,08,23,00,55,15.80
2017,08,23,00,56,15.70
2017,08,23,00,57,15.70
2017,08,23,00,58,15.70
2017,08,23,00,59,15.70
2017,08,23,01,00,15.60
2017,08,23,01,01,15.60
2017,08,23,01,02,15.50
2017,08,23,01,03,15.50
2017,08,23,01,04,15.40
2017,08,23,01,05,15.40
2017,08,23,01,06,15.40
2017,08,23,01,07,15.40
2017,08,23,01,08,15.50
2017,08,23,01,09,15.50
2017,08,23,01,10,15.60
2017,08,23,01,11,15.60
2017,08,23,01,12,15.60
2017,08,23,01,13,15.60
2017,08,23,01,14,15.60
2017,08,23,01,15,15.50
2017,08,23,01,16,15.50
2017,08,23,01,17,15.50
2017,08,23,01,18,15.40
2017,08,23,01,19,15.50
2017,08,23,01,20,15.50
2017,08,23,01,21,15.60
2017,08,23,01,22,15.60
2017,08,23,01,23,15.60
2017,08,23,01,24,15.60
2017,08,23,01,25,15.60
2017,08,23,01,26,15.60
2017,08,23,01,27,15.60
2017,08,23,01,28,15.60
2017,08,23,01,29,15.60
2017,08,23,01,30,15.60
2017,08,23,01,31,15.50
2017,08,23,01,32,15.50
2017,08,23,01,33,15.50
2017,08,23,01,34,15.40
2017,08,23,01,35,15.40
2017,08,23,01,36,15.40
2017,08,23,01,37,15.40
2017,08,23,01,38,15.40
2017,08,23,01,39,15.30
2017,08,23,01,40,15.30
2017,08,23,01,41,15.30
2017,08,23,01,42,15.30
2017,08,23,01,43,15.30
2017,08,23,01,44,15.20
2017,08,23,01,45,15.20
2017,08,23,01,46,15.20
2017,08,23,01,47,15.20
2017,08,23,01,48,15.20
2017,08,23,01,49,15.20
2017,08,23,01,50,15.20
2017,08,23,01,51,15.20
2017,08,23,01,52,15.20
2017,08,23,01,53,15.20
2017,08,23,01,54,15.20
2017,08,23,01,55,15.20
2017,08,23,01,56,15.20
2017,08,23,01,57,15.20
2017,08,23,01,58,15.20
2017,08,23,01,59,15.20
2017,08,23,02,00,15.20
2017,08,23,02,01,15.20
2017,08,23,02,02,15.20
2017,08,23,02,03,15.20
2017,08,23,02,04,15.20
2017,08,23,02,05,15.20
2017,08,23,02,06,15.20
2017,08,23,02,07,15.20
2017,08,23,02,08,15.20
2017,08,23,02,09,15.20
2017,08,23,02,10,15.20
2017,08,23,02,11,15.20
2017,08,23,02,12,15.20
2017,08,23,02,13,15.10
2017,08,23,02,14,15.10
2017,08,23,02,15,15.10
2017,08,23,02,16,15.00
2017,08,23,02,17,15.00
2017,08,23,02,18,15.00
2017,08,23,02,19,14.90
2017,08,23,02,20,14.90
2017,08,23,02,21,14.90
2017,08,23,02,22,14.80
2017,08,23,02,23,14.80
2017,08,23,02,24,14.80
2017,08,23,02,25,14.80
2017,08,23,02,26,14.80
2017,08,23,02,27,14.80
2017,08,23,02,28,14.80
2017,08,23,02,29,14.80
2017,08,23,02,30,14.80
2017,08,23,02,31,14.80
2017,08,23,02,32,14.80
2017,08,23,02,33,14.80
2017,08,23,02,34,14.80
2017,08,23,02,35,14.80
2017,08,23,02,36,14.80
2017,08,23,02,37,14.80
2017,08,23,02,38,14.80
2017,08,23,02,39,14.80
2017,08,23,02,40,14.80
2017,08,23,02,41,14.70
2017,08,23,02,42,14.70
2017,08,23,02,43,14.70
2017,08,23,02,44,14.70
2017,08,23,02,45,14.60
2017,08,23,02,46,14.60
2017,08,23,02,47,14.60
2017,08,23,02,48,14.60
2017,08,23,02,49,14.50
2017,08,23,02,50,14.50
2017,08,23,02,51,14.50
2017,08,23,02,52,14.40
2017,08,23,02,53,14.40
2017,08,23,02,54,14.40
2017,08,23,02,55,14.40
2017,08,23,02,56,14.30
2017,08,23,02,57,14.30
2017,08,23,02,58,14.30
2017,08,23,02,59,14.30
2017,08,23,03,00,14.30
2017,08,23,03,01,14.20
2017,08,23,03,02,14.20
2017,08,23,03,06,14.10
2017,08,23,03,07,14.10
2017,08,23,03,08,14.10
2017,08,23,03,09,14.00
2017,08,23,03,10,14.00
2017,08,23,03,11,14.00
2017,08,23,03,12,14.00
2017,08,23,03,13,13.90
2017,08,23,03,14,13.90
2017,08,23,03,15,13.90
2017,08,23,03,16,13.90
2017,08,23,03,17,13.90
2017,08,23,03,18,13.80
2017,08,23,03,19,13.80
2017,08,23,03,20,13.80
2017,08,23,03,21,13.80
2017,08,23,03,22,13.80
2017,08,23,03,23,13.80
2017,08,23,03,24,13.80
2017,08,23,03,25,13.80
2017,08,23,03,26,13.80
2017,08,23,03,27,13.80
2017,08,23,03,28,13.80
2017,08,23,03,29,13.80
2017,08,23,03,30,13.70
2017,08,23,03,31,13.70
2017,08,23,03,32,13.70
2017,08,23,03,33,13.70
2017,08,23,03,34,13.70
2017,08,23,03,35,13.70
2017,08,23,03,36,13.70
2017,08,23,03,37,13.70
2017,08,23,03,38,13.70
2017,08,23,03,39,13.70
2017,08,23,03,40,13.70
2017,08,23,03,41,13.70
2017,08,23,03,42,13.60
2017,08,23,03,43,13.60
2017,08,23,03,44,13.60
2017,08,23,03,45,13.60
2017,08,23,03,46,13.60
2017,08,23,03,47,13.60
2017,08,23,03,48,13.60
2017,08,23,03,49,13.60
2017,08,23,03,50,13.60
2017,08,23,03,51,13.60
2017,08,23,03,52,13.60
2017,08,23,03,53,13.60
2017,08,23,03,54,13.60
2017,08,23,03,55,13.60
2017,08,23,03,56,13.60
2017,08,23,03,57,13.60
2017,08,23,03,58,13.60
2017,08,23,03,59,13.60
2017,08,23,04,00,13.50
2017,08,23,04,01,13.50
2017,08,23,04,02,13.50
2017,08,23,04,03,13.50
2017,08,23,04,04,13.40
2017,08,23,04,05,13.40
2017,08,23,04,06,13.40
2017,08,23,04,07,13.40
2017,08,23,04,08,13.40
2017,08,23,04,09,13.40
2017,08,23,04,10,13.40
2017,08,23,04,11,13.40
2017,08,23,04,12,13.40
2017,08,23,04,13,13.30
2017,08,23,04,14,13.30
2017,08,23,04,15,13.30
2017,08,23,04,16,13.30
2017,08,23,04,17,13.30
2017,08,23,04,18,13.30
2017,08,23,04,19,13.30
2017,08,23,04,20,13.30
2017,08,23,04,21,13.30
2017,08,23,04,22,13.30
2017,08,23,04,23,13.30
2017,08,23,04,24,13.30
2017,08,23,04,25,13.20
2017,08,23,04,26,13.20
2017,08,23,04,27,13.20
2017,08,23,04,28,13.20
2017,08,23,04,29,13.20
2017,08,23,04,30,13.20
2017,08,23,04,31,13.20
2017,08,23,04,32,13.20
2017,08,23,04,33,13.20
2017,08,23,04,34,13.20
2017,08,23,04,35,13.20
2017,08,23,04,36,13.20
2017,08,23,04,37,13.10
2017,08,23,04,38,13.10
2017,08,23,04,39,13.10
2017,08,23,04,40,13.10
2017,08,23,04,41,13.10
2017,08,23,04,42,13.10
2017,08,23,04,43,13.10
2017,08,23,04,44,13.10
2017,08,23,04,45,13.10
2017,08,23,04,46,13.10
2017,08,23,04,47,13.10
2017,08,23,04,48,13.10
2017,08,23,04,49,13.10
2017,08,23,04,50,13.10
2017,08,23,04,51,13.10
2017,08,23,04,52,13.10
2017,08,23,04,53,13.10
2017,08,23,04,54,13.20
2017,08,23,04,55,13.20
2017,08,23,04,56,13.20
2017,08,23,04,57,13.20
2017,08,23,04,58,13.20
2017,08,23,04,59,13.20
2017,08,23,05,00,13.20
2017,08,23,05,01,13.20
2017,08,23,05,02,13.20
2017,08,23,05,03,13.20
2017,08,23,05,04,13.20
2017,08,23,05,05,13.20
2017,08,23,05,06,13.20
2017,08,23,05,07,13.20
2017,08,23,05,08,13.20
2017,08,23,05,09,13.20
2017,08,23,05,10,13.20
2017,08,23,05,11,13.20
2017,08,23,05,12,13.20
2017,08,23,05,13,13.20
2017,08,23,05,14,13.20
2017,08,23,05,15,13.20
2017,08,23,05,16,13.20
2017,08,23,05,17,13.20
2017,08,23,05,18,13.20
2017,08,23,05,19,13.20
2017,08,23,05,20,13.20
2017,08,23,05,21,13.20
2017,08,23,05,22,13.20
2017,08,23,05,23,13.20
2017,08,23,05,24,13.20
2017,08,23,05,25,13.20
2017,08,23,05,26,13.20
2017,08,23,05,27,13.20
2017,08,23,05,28,13.20
2017,08,23,05,29,13.20
2017,08,23,05,30,13.20
2017,08,23,05,31,13.20
2017,08,23,05,32,13.20
2017,08,23,05,33,13.20
2017,08,23,05,34,13.20
2017,08,23,05,35,13.20
2017,08,23,05,36,13.20
2017,08,23,05,37,13.20
2017,08,23,05,38,13.20
2017,08,23,05,39,13.20
2017,08,23,05,40,13.20
2017,08,23,05,41,13.20
2017,08,23,05,42,13.10
2017,08,23,05,43,13.10
2017,08,23,05,44,13.10
2017,08,23,05,45,13.10
2017,08,23,05,46,13.10
2017,08,23,05,47,13.10
2017,08,23,05,48,13.10
2017,08,23,05,49,13.10
2017,08,23,05,50,13.10
2017,08,23,05,51,13.10
2017,08,23,05,52,13.00
2017,08,23,05,53,13.00
2017,08,23,05,54,13.00
2017,08,23,05,55,13.00
2017,08,23,05,56,13.00
2017,08,23,05,57,13.00
2017,08,23,05,58,13.00
2017,08,23,05,59,13.00
2017,08,23,06,00,12.90
2017,08,23,06,01,12.90
2017,08,23,06,02,12.90
2017,08,23,06,03,12.90
2017,08,23,06,04,12.90
2017,08,23,06,05,12.90
2017,08,23,06,06,12.90
2017,08,23,06,07,12.90
2017,08,23,06,08,12.90
2017,08,23,06,09,12.90
2017,08,23,06,10,12.80
2017,08,23,06,11,12.80
2017,08,23,06,12,12.80
2017,08,23,06,13,12.80
2017,08,23,06,14,12.80
2017,08,23,06,15,12.80
2017,08,23,06,16,12.80
2017,08,23,06,17,12.80
2017,08,23,06,18,12.80
2017,08,23,06,19,12.80
2017,08,23,06,20,12.70
2017,08,23,06,21,12.70
2017,08,23,06,22,12.70
2017,08,23,06,23,12.70
2017,08,23,06,24,12.70
2017,08,23,06,25,12.70
2017,08,23,06,26,12.70
2017,08,23,06,27,12.70
2017,08,23,06,28,12.70
2017,08,23,06,29,12.70
2017,08,23,06,30,12.60
2017,08,23,06,31,12.60
2017,08,23,06,32,12.60
2017,08,23,06,33,12.60
2017,08,23,06,34,12.60
2017,08,23,06,35,12.60
2017,08,23,06,36,12.60
2017,08,23,06,37,12.60
2017,08,23,06,38,12.60
2017,08,23,06,39,12.60
2017,08,23,06,40,12.70
2017,08,23,06,41,12.70
2017,08,23,06,42,12.70
2017,08,23,06,43,12.70
2017,08,23,06,44,12.70
2017,08,23,06,45,12.70
2017,08,23,06,46,12.70
2017,08,23,06,47,12.80
2017,08,23,06,48,12.80
2017,08,23,06,49,12.80
2017,08,23,06,50,12.90
2017,08,23,06,51,13.00
2017,08,23,06,52,13.00
2017,08,23,06,53,13.10
2017,08,23,06,54,13.20
2017,08,23,06,55,13.40
2017,08,23,06,56,13.50
2017,08,23,06,57,13.50
2017,08,23,06,58,13.60
2017,08,23,06,59,13.70
2017,08,23,07,00,13.80
2017,08,23,07,01,13.80
2017,08,23,07,02,13.80
2017,08,23,07,03,13.90
2017,08,23,07,04,14.00
2017,08,23,07,05,14.00
2017,08,23,07,06,14.10
2017,08,23,07,07,14.10
2017,08,23,07,08,14.20
2017,08,23,07,09,14.20
2017,08,23,07,10,14.20
2017,08,23,07,11,14.20
2017,08,23,07,12,14.20
2017,08,23,07,13,14.20
2017,08,23,07,14,14.20
2017,08,23,07,15,14.20
2017,08,23,07,16,14.20
2017,08,23,07,17,14.20
2017,08,23,07,18,14.20
2017,08,23,07,19,14.20
2017,08,23,07,20,14.10
2017,08,23,07,21,14.20
2017,08,23,07,22,14.10
2017,08,23,07,23,14.10
2017,08,23,07,24,14.10
2017,08,23,07,25,14.10
2017,08,23,07,26,14.10
2017,08,23,07,27,14.20
2017,08,23,07,28,14.20
2017,08,23,07,29,14.30
2017,08,23,07,30,14.30
2017,08,23,07,31,14.40
2017,08,23,07,32,14.50
2017,08,23,07,33,14.50
2017,08,23,07,34,14.50
2017,08,23,07,35,14.50
2017,08,23,07,36,14.50
2017,08,23,07,37,14.60
2017,08,23,07,38,14.60
2017,08,23,07,39,14.60
2017,08,23,07,40,14.60
2017,08,23,07,41,14.60
2017,08,23,07,42,14.70
2017,08,23,07,43,14.70
2017,08,23,07,44,14.80
2017,08,23,07,45,14.80
2017,08,23,07,46,14.80
2017,08,23,07,47,14.80
2017,08,23,07,48,14.90
2017,08,23,07,49,15.00
2017,08,23,07,50,15.10
2017,08,23,07,51,15.20
2017,08,23,07,52,15.30
2017,08,23,07,53,15.30
2017,08,23,07,54,15.40
2017,08,23,07,55,15.40
2017,08,23,07,56,15.40
2017,08,23,07,57,15.40
2017,08,23,07,58,15.40
2017,08,23,07,59,15.40
2017,08,23,08,00,15.30
2017,08,23,08,01,15.30
2017,08,23,08,02,15.20
2017,08,23,08,03,15.10
2017,08,23,08,04,15.00
2017,08,23,08,05,14.90
2017,08,23,08,06,14.80
2017,08,23,08,07,14.70
2017,08,23,08,08,14.70
2017,08,23,08,09,14.60
2017,08,23,08,10,14.60
2017,08,23,08,11,14.60
2017,08,23,08,12,14.70
2017,08,23,08,13,14.70
2017,08,23,08,14,14.70
2017,08,23,08,15,14.70
2017,08,23,08,16,14.70
2017,08,23,08,17,14.70
2017,08,23,08,18,14.70
2017,08,23,08,19,14.80
2017,08,23,08,20,14.80
2017,08,23,08,21,14.80
2017,08,23,08,22,14.80
2017,08,23,08,23,14.80
2017,08,23,08,24,14.80
2017,08,23,08,25,14.80
2017,08,23,08,26,14.90
2017,08,23,08,27,15.00
2017,08,23,08,28,15.10
2017,08,23,08,29,15.10
2017,08,23,08,30,15.10
2017,08,23,08,31,15.20
2017,08,23,08,32,15.30
2017,08,23,08,33,15.30
2017,08,23,08,34,15.30
2017,08,23,08,35,15.30
2017,08,23,08,36,15.30
2017,08,23,08,37,15.20
2017,08,23,08,38,15.20
2017,08,23,08,39,15.10
2017,08,23,08,40,15.00
2017,08,23,08,41,14.90
2017,08,23,08,42,14.80
2017,08,23,08,43,14.80
2017,08,23,08,44,14.80
2017,08,23,08,45,14.80
2017,08,23,08,46,14.80
2017,08,23,08,47,14.80
2017,08,23,08,48,14.80
2017,08,23,08,49,14.90
2017,08,23,08,50,14.90
2017,08,23,08,51,14.90
2017,08,23,08,52,14.90
2017,08,23,08,53,14.90
2017,08,23,08,54,15.00
2017,08,23,08,55,15.10
2017,08,23,08,56,15.00
2017,08,23,08,57,15.10
2017,08,23,08,58,15.10
2017,08,23,08,59,15.10
2017,08,23,09,00,15.00
2017,08,23,09,01,15.00
2017,08,23,09,02,14.90
2017,08,23,09,03,14.80
2017,08,23,09,04,14.70
2017,08,23,09,05,14.70
2017,08,23,09,06,14.60
2017,08,23,09,07,14.60
2017,08,23,09,08,14.70
2017,08,23,09,09,14.70
2017,08,23,09,10,14.70
2017,08,23,09,11,14.80
2017,08,23,09,12,14.80
2017,08,23,09,13,14.90
2017,08,23,09,14,15.00
2017,08,23,09,15,15.00
2017,08,23,09,16,14.90
2017,08,23,09,17,14.90
2017,08,23,09,18,14.80
2017,08,23,09,19,14.80
2017,08,23,09,20,14.80
2017,08,23,09,21,14.80
2017,08,23,09,22,14.80
2017,08,23,09,23,14.80
2017,08,23,09,24,14.90
2017,08,23,09,25,14.90
2017,08,23,09,26,14.90
2017,08,23,09,27,14.90
2017,08,23,09,28,14.90
2017,08,23,09,29,14.90
2017,08,23,09,30,14.80
2017,08,23,09,31,14.70
2017,08,23,09,32,14.70
2017,08,23,09,33,14.60
2017,08,23,09,34,14.60
2017,08,23,09,35,14.50
2017,08,23,09,36,14.50
2017,08,23,09,37,14.40
2017,08,23,09,38,14.40
2017,08,23,09,39,14.30
2017,08,23,09,40,14.30
2017,08,23,09,41,14.30
2017,08,23,09,42,14.20
2017,08,23,09,43,14.20
2017,08,23,09,44,14.30
2017,08,23,09,45,14.30
2017,08,23,09,46,14.30
2017,08,23,09,47,14.40
2017,08,23,09,48,14.40
2017,08,23,09,49,14.40
2017,08,23,09,50,14.40
2017,08,23,09,51,14.50
2017,08,23,09,52,14.50
2017,08,23,09,53,14.50
2017,08,23,09,54,14.60
2017,08,23,09,55,14.60
2017,08,23,09,56,14.70
2017,08,23,09,57,14.80
2017,08,23,09,58,14.80
2017,08,23,09,59,14.80
2017,08,23,10,00,14.90
2017,08,23,10,01,14.90
2017,08,23,10,02,14.90
2017,08,23,10,03,14.90
2017,08,23,10,04,15.00
2017,08,23,10,05,15.00
2017,08,23,10,06,15.00
2017,08,23,10,07,15.00
2017,08,23,10,08,15.00
2017,08,23,10,09,15.00
2017,08,23,10,10,15.00
2017,08,23,10,11,14.90
2017,08,23,10,12,14.90
2017,08,23,10,13,14.90
2017,08,23,10,14,15.00
2017,08,23,10,15,15.10
2017,08,23,10,16,15.20
2017,08,23,10,17,15.30
2017,08,23,10,18,15.30
2017,08,23,10,19,15.30
2017,08,23,10,20,15.30
2017,08,23,10,21,15.30
2017,08,23,10,22,15.20
2017,08,23,10,23,15.20
2017,08,23,10,24,15.10
2017,08,23,10,25,15.10
2017,08,23,10,26,15.20
2017,08,23,10,27,15.20
2017,08,23,10,28,15.20
2017,08,23,10,29,15.30
2017,08,23,10,30,15.30
2017,08,23,10,31,15.40
2017,08,23,10,32,15.40
2017,08,23,10,33,15.50
2017,08,23,10,34,15.50
2017,08,23,10,35,15.60
2017,08,23,10,36,15.60
2017,08,23,10,37,15.50
2017,08,23,10,38,15.60
2017,08,23,10,39,15.60
2017,08,23,10,40,15.60
2017,08,23,10,41,15.70
2017,08,23,10,42,15.80
2017,08,23,10,43,15.80
2017,08,23,10,44,15.70
2017,08,23,10,45,15.70
2017,08,23,10,46,15.70
2017,08,23,10,47,15.70
2017,08,23,10,48,15.80
2017,08,23,10,49,15.90
2017,08,23,10,50,15.90
2017,08,23,10,51,15.90
2017,08,23,10,52,15.90
2017,08,23,10,53,15.80
2017,08,23,10,54,15.80
2017,08,23,10,55,15.80
2017,08,23,10,56,15.90
2017,08,23,10,57,15.90
2017,08,23,10,58,16.00
2017,08,23,10,59,16.00
2017,08,23,11,00,16.10
2017,08,23,11,01,16.10
2017,08,23,11,02,16.20
2017,08,23,11,03,16.20
2017,08,23,11,04,16.20
2017,08,23,11,05,16.20
2017,08,23,11,06,16.30
2017,08,23,11,07,16.40
2017,08,23,11,08,16.50
2017,08,23,11,09,16.60
2017,08,23,11,10,16.70
2017,08,23,11,11,16.80
2017,08,23,11,12,16.90
2017,08,23,11,13,17.00
2017,08,23,11,14,17.00
2017,08,23,11,15,17.10
2017,08,23,11,16,17.20
2017,08,23,11,17,17.20
2017,08,23,11,18,17.20
2017,08,23,11,19,17.30
2017,08,23,11,20,17.30
2017,08,23,11,21,17.30
2017,08,23,11,22,17.30
2017,08,23,11,23,17.30
2017,08,23,11,24,17.30
2017,08,23,11,25,17.40
2017,08,23,11,26,17.40
2017,08,23,11,27,17.40
2017,08,23,11,28,17.50
2017,08,23,11,29,17.60
2017,08,23,11,30,17.60
2017,08,23,11,31,17.60
2017,08,23,11,32,17.60
2017,08,23,11,33,17.70
2017,08,23,11,34,17.70
2017,08,23,11,35,17.70
2017,08,23,11,36,17.80
2017,08,23,11,37,17.80
2017,08,23,11,38,17.80
2017,08,23,11,39,17.90
2017,08,23,11,40,18.00
2017,08,23,11,41,18.00
2017,08,23,11,42,18.10
2017,08,23,11,43,18.10
2017,08,23,11,44,18.10
2017,08,23,11,45,18.10
2017,08,23,11,46,18.10
2017,08,23,11,47,18.00
2017,08,23,11,48,18.00
2017,08,23,11,49,18.10
2017,08,23,11,50,18.00
2017,08,23,11,51,18.10
2017,08,23,11,52,18.10
2017,08,23,11,53,18.20
2017,08,23,11,54,18.20
2017,08,23,11,55,18.30
2017,08,23,11,56,18.30
2017,08,23,11,57,18.40
2017,08,23,11,58,18.40
2017,08,23,11,59,18.50
2017,08,23,12,00,18.60
2017,08,23,12,01,18.60
2017,08,23,12,02,18.70
2017,08,23,12,03,18.80
2017,08,23,12,04,19.00
2017,08,23,12,05,19.10
2017,08,23,12,06,19.20
2017,08,23,12,07,19.30
2017,08,23,12,08,19.40
2017,08,23,12,09,19.40
2017,08,23,12,10,19.30
2017,08,23,12,11,19.30
2017,08,23,12,12,19.30
2017,08,23,12,13,19.30
2017,08,23,12,14,19.20
2017,08,23,12,15,19.10
2017,08,23,12,16,19.10
2017,08,23,12,17,19.10
2017,08,23,12,18,19.10
2017,08,23,12,19,19.20
2017,08,23,12,20,19.20
2017,08,23,12,21,19.20
2017,08,23,12,22,19.30
2017,08,23,12,23,19.30
2017,08,23,12,24,19.30
2017,08,23,12,25,19.20
2017,08,23,12,26,19.30
2017,08,23,12,27,19.30
2017,08,23,12,28,19.30
2017,08,23,12,29,19.30
2017,08,23,12,30,19.20
2017,08,23,12,31,19.10
2017,08,23,12,32,19.00
2017,08,23,12,33,18.90
2017,08,23,12,34,18.90
2017,08,23,12,35,18.80
2017,08,23,12,36,18.90
2017,08,23,12,37,19.00
2017,08,23,12,38,19.10
2017,08,23,12,39,19.20
2017,08,23,12,40,19.40
2017,08,23,12,41,19.40
2017,08,23,12,42,19.40
2017,08,23,12,43,19.40
2017,08,23,12,44,19.40
2017,08,23,12,45,19.40
2017,08,23,12,46,19.50
2017,08,23,12,47,19.50
2017,08,23,12,48,19.50
2017,08,23,12,49,19.50
2017,08,23,12,50,19.50
2017,08,23,12,51,19.50
2017,08,23,12,52,19.50
2017,08,23,12,53,19.50
2017,08,23,12,54,19.40
2017,08,23,12,55,19.40
2017,08,23,12,56,19.30
2017,08,23,12,57,19.20
2017,08,23,12,58,19.20
2017,08,23,12,59,19.10
2017,08,23,13,00,18.90
2017,08,23,13,01,18.70
2017,08,23,13,02,18.50
2017,08,23,13,03,18.30
2017,08,23,13,04,18.00
2017,08,23,13,05,17.90
2017,08,23,13,06,17.80
2017,08,23,13,07,17.80
2017,08,23,13,08,17.70
2017,08,23,13,09,17.80
2017,08,23,13,10,17.80
2017,08,23,13,11,17.90
2017,08,23,13,12,18.00
2017,08,23,13,13,18.10
2017,08,23,13,14,18.20
2017,08,23,13,15,18.30
2017,08,23,13,16,18.40
2017,08,23,13,17,18.40
2017,08,23,13,18,18.40
2017,08,23,13,19,18.30
2017,08,23,13,20,18.20
2017,08,23,13,21,18.20
2017,08,23,13,22,18.20
2017,08,23,13,23,18.20
2017,08,23,13,24,18.30
2017,08,23,13,25,18.30
2017,08,23,13,26,18.40
2017,08,23,13,27,18.40
2017,08,23,13,28,18.50
2017,08,23,13,29,18.60
2017,08,23,13,30,18.60
2017,08,23,13,31,18.70
2017,08,23,13,32,18.80
2017,08,23,13,33,18.90
2017,08,23,13,34,19.00
2017,08,23,13,35,19.00
2017,08,23,13,36,19.10
2017,08,23,13,37,19.10
2017,08,23,13,38,19.10
2017,08,23,13,39,19.20
2017,08,23,13,40,19.20
2017,08,23,13,41,19.30
2017,08,23,13,42,19.30
2017,08,23,13,43,19.30
2017,08,23,13,44,19.30
2017,08,23,13,45,19.30
2017,08,23,13,46,19.40
2017,08,23,13,47,19.50
2017,08,23,13,48,19.60
2017,08,23,13,49,19.60
2017,08,23,13,50,19.70
2017,08,23,13,51,19.70
2017,08,23,13,52,19.70
2017,08,23,13,53,19.70
2017,08,23,13,54,19.70
2017,08,23,13,55,19.60
2017,08,23,13,56,19.50
2017,08,23,13,57,19.40
2017,08,23,13,58,19.40
2017,08,23,13,59,19.50
2017,08,23,14,00,19.60
2017,08,23,14,01,19.60
2017,08,23,14,02,19.60
2017,08,23,14,03,19.60
2017,08,23,14,04,19.60
2017,08,23,14,05,19.60
2017,08,23,14,06,19.60
2017,08,23,14,07,19.60
2017,08,23,14,08,19.60
2017,08,23,14,09,19.50
2017,08,23,14,10,19.50
2017,08,23,14,11,19.50
2017,08,23,14,12,19.50
2017,08,23,14,13,19.60
2017,08,23,14,14,19.60
2017,08,23,14,15,19.60
2017,08,23,14,16,19.60
2017,08,23,14,17,19.60
2017,08,23,14,18,19.60
2017,08,23,14,19,19.60
2017,08,23,14,20,19.70
2017,08,23,14,21,19.70
2017,08,23,14,22,19.70
2017,08,23,14,23,19.60
2017,08,23,14,24,19.60
2017,08,23,14,25,19.60
2017,08,23,14,26,19.70
2017,08,23,14,27,19.80
2017,08,23,14,28,19.90
2017,08,23,14,29,19.90
2017,08,23,14,30,19.90
2017,08,23,14,31,20.00
2017,08,23,14,32,20.00
2017,08,23,14,33,20.10
2017,08,23,14,34,20.10
2017,08,23,14,35,20.20
2017,08,23,14,36,20.20
2017,08,23,14,37,20.30
2017,08,23,14,38,20.30
2017,08,23,14,39,20.30
2017,08,23,14,40,20.40
2017,08,23,14,41,20.40
2017,08,23,14,42,20.50
2017,08,23,14,43,20.50
2017,08,23,14,44,20.60
2017,08,23,14,45,20.70
2017,08,23,14,46,20.70
2017,08,23,14,47,20.60
2017,08,23,14,48,20.50
2017,08,23,14,49,20.40
2017,08,23,14,50,20.30
2017,08,23,14,51,20.20
2017,08,23,14,52,20.20
2017,08,23,14,53,20.20
2017,08,23,14,54,20.30
2017,08,23,14,55,20.40
2017,08,23,14,56,20.40
2017,08,23,14,57,20.40
2017,08,23,14,58,20.40
2017,08,23,14,59,20.40
2017,08,23,15,00,20.40
2017,08,23,15,01,20.50
2017,08,23,15,02,20.50
2017,08,23,15,03,20.60
2017,08,23,15,04,20.70
2017,08,23,15,05,20.80
2017,08,23,15,06,20.80
2017,08,23,15,07,20.90
2017,08,23,15,08,20.90
2017,08,23,15,09,21.00
2017,08,23,15,10,21.10
2017,08,23,15,11,21.20
2017,08,23,15,12,21.30
2017,08,23,15,13,21.40
2017,08,23,15,14,21.40
2017,08,23,15,15,21.50
2017,08,23,15,16,21.50
2017,08,23,15,17,21.40
2017,08,23,15,18,21.30
2017,08,23,15,19,21.20
2017,08,23,15,20,21.00
2017,08,23,15,21,20.80
2017,08,23,15,22,20.70
2017,08,23,15,23,20.60
2017,08,23,15,24,20.60
2017,08,23,15,25,20.60
2017,08,23,15,26,20.60
2017,08,23,15,27,20.70
2017,08,23,15,28,20.70
2017,08,23,15,29,20.80
2017,08,23,15,30,20.90
2017,08,23,15,31,20.90
2017,08,23,15,32,20.90
2017,08,23,15,33,20.90
2017,08,23,15,34,20.80
2017,08,23,15,35,20.70
2017,08,23,15,36,20.70
2017,08,23,15,37,20.70
2017,08,23,15,38,20.80
2017,08,23,15,39,20.90
2017,08,23,15,40,21.00
2017,08,23,15,41,21.10
2017,08,23,15,42,21.20
2017,08,23,15,43,21.40
2017,08,23,15,44,21.50
2017,08,23,15,45,21.60
2017,08,23,15,46,21.60
2017,08,23,15,47,21.70
2017,08,23,15,48,21.70
2017,08,23,15,49,21.70
2017,08,23,15,50,21.70
2017,08,23,15,51,21.80
2017,08,23,15,52,21.90
2017,08,23,15,53,22.00
2017,08,23,15,54,22.10
2017,08,23,15,55,22.10
2017,08,23,15,56,22.00
2017,08,23,15,57,21.90
2017,08,23,15,58,21.70
2017,08,23,15,59,21.60
2017,08,23,16,00,21.50
2017,08,23,16,01,21.30
2017,08,23,16,02,21.10
2017,08,23,16,03,21.10
2017,08,23,16,04,21.10
2017,08,23,16,05,21.10
2017,08,23,16,06,21.20
2017,08,23,16,07,21.20
2017,08,23,16,08,21.30
2017,08,23,16,09,21.40
2017,08,23,16,10,21.50
2017,08,23,16,11,21.60
2017,08,23,16,12,21.70
2017,08,23,16,13,21.80
2017,08,23,16,14,21.80
2017,08,23,16,15,21.90
2017,08,23,16,16,21.90
2017,08,23,16,17,21.90
2017,08,23,16,18,21.90
2017,08,23,16,19,21.90
2017,08,23,16,20,21.90
2017,08,23,16,21,22.00
2017,08,23,16,22,22.00
2017,08,23,16,23,22.10
2017,08,23,16,24,22.10
2017,08,23,16,25,22.10
2017,08,23,16,26,22.10
2017,08,23,16,27,22.10
2017,08,23,16,28,22.00
2017,08,23,16,29,22.00
2017,08,23,16,30,22.10
2017,08,23,16,31,22.10
2017,08,23,16,32,22.10
2017,08,23,16,33,22.00
2017,08,23,16,34,22.00
2017,08,23,16,35,22.10
2017,08,23,16,36,22.10
2017,08,23,16,37,22.10
2017,08,23,16,38,22.10
2017,08,23,16,39,22.20
2017,08,23,16,40,22.30
2017,08,23,16,41,22.30
2017,08,23,16,42,22.20
2017,08,23,16,43,22.20
2017,08,23,16,44,22.20
2017,08,23,16,45,22.30
2017,08,23,16,46,22.40
2017,08,23,16,47,22.50
2017,08,23,16,48,22.60
2017,08,23,16,49,22.70
2017,08,23,16,50,22.70
2017,08,23,16,51,22.60
2017,08,23,16,52,22.60
2017,08,23,16,53,22.60
2017,08,23,16,54,22.60
2017,08,23,16,55,22.60
2017,08,23,16,56,22.60
2017,08,23,16,57,22.60
2017,08,23,16,58,22.60
2017,08,23,16,59,22.60
2017,08,23,17,00,22.70
2017,08,23,17,01,22.70
2017,08,23,17,02,22.70
2017,08,23,17,03,22.70
2017,08,23,17,04,22.70
2017,08,23,17,05,22.80
2017,08,23,17,06,22.80
2017,08,23,17,07,22.80
2017,08,23,17,08,22.70
2017,08,23,17,09,22.60
2017,08,23,17,10,22.50
2017,08,23,17,11,22.30
2017,08,23,17,12,22.20
2017,08,23,17,13,22.10
2017,08,23,17,14,21.90
2017,08,23,17,15,21.90
2017,08,23,17,16,21.90
2017,08,23,17,17,21.90
2017,08,23,17,18,22.00
2017,08,23,17,19,22.00
2017,08,23,17,20,22.00
2017,08,23,17,21,22.10
2017,08,23,17,22,22.10